Overview Statistics Trail Chart Weather Telemetry Raw packets
 

This is the latest recevied weather packets stored in our database for station/object KE8WMS. If no packets are shown the sender has not sent any weather packets the latest 10 day(s).

<< 94 95 96 97 98 99 100 >>
Time Temp. Humidity Pressure Rain* Wind** Luminosity Snow
1777122472 8.33° C 99% 1006.5 hPa 0 mm - 86 W/m² -
1777122169 8.33° C 99% 1006.1 hPa 0 mm - 82 W/m² -
1777121864 8.33° C 99% 1006.2 hPa 0 mm - 86 W/m² -
1777121561 8.33° C 99% 1005.9 hPa 0 mm - 86 W/m² -
1777121258 8.33° C 99% 1006.1 hPa 0 mm - 77 W/m² -
1777120954 8.89° C 99% 1006 hPa 0 mm - 64 W/m² -
1777120650 8.89° C 99% 1006 hPa 0 mm - 53 W/m² -
1777120346 8.89° C 99% 1005.8 hPa 0 mm - 56 W/m² -
1777120041 8.89° C 99% 1005.6 hPa 0 mm - 67 W/m² -
1777119738 8.89° C 99% 1005.6 hPa 0 mm - 62 W/m² -
1777119434 8.89° C 99% 1005.4 hPa 0 mm - 52 W/m² -
1777119134 9.44° C 99% 1005.5 hPa 0 mm - 48 W/m² -
1777118829 9.44° C 99% 1005.5 hPa 0 mm - 35 W/m² -
1777118526 9.44° C 99% 1005.3 hPa 0 mm - 36 W/m² -
1777118226 9.44° C 99% 1005.2 hPa 0 mm - 51 W/m² -
1777117924 8.89° C 99% 1005.1 hPa 0 mm - 49 W/m² -
1777117620 9.44° C 99% 1004.9 hPa 0 mm - 39 W/m² -
1777117318 9.44° C 99% 1004.9 hPa 0 mm - 30 W/m² -
1777117013 9.44° C 99% 1005 hPa 0 mm - 25 W/m² -
1777116709 9.44° C 99% 1004.9 hPa 0 mm - 17 W/m² -
1777116404 10° C 99% 1004.6 hPa 0 mm - 16 W/m² -
1777116101 10° C 99% 1004.6 hPa 0 mm - 14 W/m² -
1777115800 10° C 99% 1004.3 hPa 0 mm - 9 W/m² -
1777115497 10° C 99% 1004.6 hPa 0 mm - 8 W/m² -
1777115193 10° C 99% 1004.7 hPa 0 mm - 8 W/m² -

* Rain latest hour (hover to see other rain measurements)
** Current wind speed in m/s (hover to see current wind gust speed)